CAPE
170 44 17 95 401 534 388 94 52 54 0 0 0 152 753 1055 1144 1133 1603 975 479 387 438 633 660 690 576 652 355 169 19 163 40 55 0 66 49 28
52 41 54 127 319 298 187 43 0 0 0 0 0 73 414 969 1322 1242 1508 892 434 383 248 213 274 316 455 465 454 381 264 231 167 59 8 3 17 50
16 8 26 40 63 69 77 48 12 0 0 0 0 113 234 644 1128 1433 1493 1030 742 328 329 176 126 157 181 312 300 313 322 316 270 128 82 81 13 0
118 183 72 26 12 39 49 33 35 48 18 27 60 63 129 155 250 397 879 802 865 518 366 255 326 284 188 98 73 66 100 259 342 266 171 78 0 1
146 225 107 113 158 68 1 0 0 2 14 4 20 14 17 0 0 0 40 204 243 0 0 0 0 0 77 227 145 116 68 43 85 36 213 203 128 98
240 310 387 377 318 270 120 6 0 0 4 3 0 0 0 0 0 1 5 20 52 54 1 0 2 2 0 0 3 86 96 62 47 72 83 129 168 177
36 38 81 94 96 127 169 148 81 7 2 2 0 0 0 0 0 0 3 5 33 54 25 0 0 3 55 88 68 17 10 27 49 44 25 19 38 42
1 2 2 4 2 33 105 111 26 102 45 0 0 0 0 0 0 0 0 0 0 0 0 0 0 0 0 0 0 0 165 61 36 57 40 44 31 26
3 2 1 3 4 3 6 2 2 0 0 0 0 0 0 0 0 0 0 0 0 0 0 0 0 0 0 0 0 0 0 1 28 2 21 1 7 14
4 4 2 3 3 3 0 0 0 0 0 0 0 0 0 0 0 0 0 0 0 0 0 0 3 39 0 23 9 0 0 0 0 2 2 0 2 1
0 0 0 0 0 0 1 1 0 1 1 1 0 0 0 0 0 0 0 0 0 0 0 14 0 0 0 5 13 0 0 0 0 1 0 0 0 1
0 0 0 0 0 0 0 0 0 1 1 1 3 4 8 0 0 0 0 0 0 2 1 7 5 2 8 1 7 0 0 13 0 0 0 0 0 37
4 7 7 0 0 0 0 0 0 1 2 14 9 2 0 0 0 0 0 0 0 0 0 46 23 21 27 0 0 10 24 10 44 59 0 0 0 0
9 5 3 0 0 0 0 0 0 0 7 10 8 10 8 12 27 60 54 37 12 17 0 0 13 7 14 25 19 11 43 53 73 65 26 6 0 0
0 0 0 0 0 0 0 0 0 0 5 10 2 0 0 0 0 1 1 2 13 0 0 0 0 0 0 2 12 29 21 86 20 13 14 51 40 1
0 0 0 0 0 0 0 0 0 0 0 1 15 14 17 3 1 2 0 0 0 0 0 0 0 1 0 0 0 0 0 0 0 0 0 0 1 28
0 0 0 0 0 0 0 0 0 0 0 2 2 1 4 8 12 5 3 8 2 8 5 4 8 18 6 18 2 1 0 0 0 0 0 0 0 0
0 0 0 0 2 3 3 2 4 5 10 11 8 6 3 4 4 9 8 5 5 7 12 14 15 8 4 9 6 1 2 5 0 0 0 0 0 0
0 2 4 4 4 6 5 6 9 17 27 15 15 20 23 14 7 15 14 16 14 18 19 17 13 12 8 4 3 0 0 0 0 0 0 0 0 0
2 1 2 3 2 2 1 1 1 2 3 8 12 17 17 15 17 21 19 15 15 17 21 17 11 15 14 14 7 1 0 0 0 0 0 0 0 0
0 0 0 0 0 0 0 0 0 0 0 0 0 0 0 0 0 0 0 0 0 6 12 23 32 2 13 22 22 11 8 3 0 0 0 0 0 0
0 0 0 0 0 0 0 0 0 0 0 0 0 0 0 0 0 0 0 0 0 3 3 0 2 5 3 7 4 0 0 0 0 0 0 0 0 0
0 0 0 0 0 0 0 0 0 0 0 0 0 0 0 0 0 0 2 3 3 1 0 0 0 0 0 0 0 0 0 0 0 0 0 1 0 0
CIN
-107 -140 -197 -101 -23 -2 -5 -62 -45 -48 0 0 0 -58 -47 -53 -54 -43 -24 -48 -49 -48 -42 -41 -41 -40 -38 -19 -19 -11 -3 -34 -4 -6 0 -1 0 -3
-78 -110 -144 -97 -27 -34 -61 -128 0 0 0 0 0 -84 -41 -31 -37 -40 -17 -35 -58 -56 -62 -66 -65 -72 -63 -50 -30 -20 -12 -4 -1 -12 -51 -5 -2 -3
-46 -89 -112 -153 -134 -123 -121 -141 -161 0 0 0 0 -96 -65 -37 -18 -20 -12 -15 -18 -65 -64 -70 -69 -68 -71 -62 -58 -54 -43 -18 -5 -4 -57 -13 -8 -5
-31 -20 -62 -119 -184 -130 -123 -146 -125 -127 -151 -136 -84 -103 -105 -106 -73 -61 -6 -1 0 -32 -50 -65 -67 -65 -62 -68 -89 -113 -82 -56 -36 -22 -14 -30 0 -6
-39 -17 -55 -57 -53 -90 -14 0 -39 -132 -159 -184 -144 -194 -179 0 0 0 -64 -56 -41 0 0 0 0 0 -68 -52 -58 -87 -112 -117 -83 -58 -38 -20 -15 -7
-7 -5 -9 -15 -27 -42 -69 -46 0 0 -175 -209 0 0 0 0 0 -23 -68 -98 -47 -51 -5 -2 -38 -9 0 0 -14 -76 -119 -164 -122 -87 -89 -79 -52 -32
-174 -168 -103 -99 -91 -74 -53 -37 -45 -97 -101 -104 -114 0 0 0 0 0 -72 -121 -47 -37 -40 0 0 -5 -29 -52 -59 -75 -89 -109 -104 -100 -94 -88 -91 -72
0 0 0 0 0 -189 -109 -91 -137 -47 -37 0 0 0 0 0 0 0 0 0 0 0 0 0 0 0 0 0 0 0 -65 -114 -147 -115 -123 -113 -119 -119
0 0 0 0 0 0 0 0 0 0 0 0 0 0 0 0 0 0 0 0 0 0 0 0 0 0 0 0 0 0 0 -18 -110 -34 -118 -76 -130 -159
0 0 0 0 0 0 0 0 0 0 0 0 0 0 0 0 0 0 0 0 0 0 0 0 -9 -9 0 -11 -18 0 0 0 0 -69 -60 0 -169 -96
0 0 0 0 0 0 0 0 0 0 0 0 0 0 0 0 0 0 0 0 0 0 0 -6 0 0 0 -31 -28 0 0 0 0 -84 0 0 -22 -247
0 0 0 0 0 0 0 0 0 0 0 0 0 0 0 0 0 0 0 0 -1 -5 -8 -21 -17 -4 -2 -43 -20 -4 -6 -139 0 0 0 0 0 -155
-1 0 0 0 0 0 0 0 0 0 -1 0 0 -4 0 -11 0 0 0 0 0 -4 0 0 -4 -11 -1 0 0 -14 -25 -36 -55 -103 0 0 0 0
0 0 0 0 0 0 0 0 0 0 -3 -1 -1 0 -1 -25 -12 -1 -1 0 -7 -5 -1 0 -6 -16 -15 -13 -7 -11 -13 -36 -59 -33 -78 -98 -64 -114
0 0 0 0 0 0 0 0 0 0 -1 -8 -32 0 -4 0 0 -8 0 0 -8 0 0 0 0 0 0 -1 0 -1 -8 -1 -55 -104 -122 -53 -63 -86
0 0 0 0 0 0 0 0 0 0 0 -1 -1 0 -2 -8 0 -2 0 0 0 0 0 0 0 -3 0 0 0 0 0 0 0 0 0 0 -39 -35
0 0 0 0 0 0 0 0 0 0 0 -2 -2 -2 -2 -1 -2 -1 -1 -5 -1 -2 -1 -1 -21 -16 -5 -8 -1 -1 0 0 0 0 0 0 0 0
0 0 0 0 -4 -4 -2 -2 -2 -6 -5 -4 -1 -3 -2 -2 -3 -3 -1 -1 -1 -3 -2 -2 -2 -2 -2 -4 -12 -1 -2 -2 -1 0 0 0 0 0
0 -9 -10 -12 -18 -14 -13 -12 -8 -11 -22 -7 -9 -3 -3 -3 -3 -3 -4 -2 -1 -1 -3 -2 -3 -2 -1 -3 -3 0 0 0 0 0 0 0 0 0
-13 -15 -19 -24 -18 -17 -12 -12 -12 -9 -12 -18 -11 -7 -6 -9 -9 -3 -3 -5 -2 -2 -3 -3 -3 -1 -1 -1 -2 -3 0 0 0 0 0 0 0 0
0 0 0 0 0 0 0 0 0 0 0 0 0 0 0 0 0 0 0 0 0 -12 -2 -2 -3 -21 -16 -2 -2 -2 -2 -18 0 0 0 0 0 0
0 0 0 0 0 0 0 0 0 0 0 0 0 0 0 0 0 0 0 0 -1 -2 -2 -1 -2 -2 -2 -2 -2 0 0 0 0 0 0 0 0 0
0 0 0 0 0 0 0 0 0 0 0 0 0 0 0 0 0 -1 -3 -1 -2 -2 0 0 0 0 0 0 0 0 0 0 0 0 0 -3 0 0
Wind_Speed
21 20 20 21 19 19 19 19 22 25 25 23 24 24 23 20 18 18 15 14 13 12 13 12 14 17 13 5 6 6 5 13 12 13 19 23 29 35
18 20 22 22 22 21 21 20 19 22 27 25 26 25 25 23 20 17 16 15 14 14 14 14 14 14 14 15 12 10 8 4 8 12 16 17 21 29
13 5 9 16 24 24 21 19 18 19 26 28 25 24 24 23 20 18 18 17 17 17 17 17 19 20 18 15 15 15 14 11 6 9 11 17 18 19
15 14 17 17 16 21 19 18 18 16 20 28 29 26 23 21 21 21 20 20 20 18 20 20 21 22 23 21 18 17 16 12 10 8 10 20 13 15
13 15 19 19 18 19 20 21 19 18 18 20 23 22 25 26 23 22 22 23 23 23 23 25 26 26 25 24 24 22 19 16 13 11 10 10 12 13
14 13 13 16 17 18 19 19 18 19 19 20 25 24 25 26 27 26 26 26 26 26 26 26 27 27 28 28 27 26 25 20 17 14 12 11 12 14
22 21 19 18 15 12 11 13 14 16 17 19 23 26 25 24 25 26 27 26 25 26 27 26 27 27 26 26 28 29 30 25 20 18 16 15 15 15
27 27 27 27 26 23 20 15 15 15 15 21 22 21 26 24 24 25 29 27 26 24 30 30 29 29 29 27 27 28 27 27 26 21 19 19 20 20
29 29 28 29 28 25 23 22 21 20 18 19 18 17 18 18 21 20 21 25 27 31 30 30 27 29 27 29 29 30 29 29 27 24 24 24 22 23
30 30 30 30 30 27 24 23 22 22 20 17 15 14 15 16 15 16 14 17 18 24 28 37 32 29 29 25 26 27 28 29 30 30 29 29 28 26
29 30 30 31 31 27 25 23 22 23 21 19 18 18 17 14 13 14 19 17 16 19 20 25 29 35 37 33 28 27 25 27 29 31 30 29 28 28
29 30 32 31 31 30 27 25 25 24 23 21 19 18 19 18 15 15 17 18 18 22 20 24 25 24 27 26 31 31 30 26 24 25 26 26 25 25
28 29 30 31 29 29 27 26 24 23 22 21 19 18 18 20 20 20 19 20 20 22 20 20 21 23 22 25 22 21 22 25 26 23 21 22 22 21
29 29 29 29 28 29 28 27 25 25 23 23 22 22 22 23 24 22 20 20 20 21 20 20 22 23 24 26 25 21 21 21 22 25 23 24 23 21
28 28 29 29 28 28 29 29 28 27 26 25 25 25 24 24 23 23 23 23 21 22 23 22 23 24 23 26 26 25 24 21 22 23 24 25 25 24
29 29 28 28 28 28 28 28 28 27 27 26 25 23 22 23 23 23 22 23 23 23 22 23 24 24 25 25 24 24 23 25 28 27 26 26 27 26
27 28 29 30 30 30 30 30 29 28 27 26 26 26 25 24 24 24 24 24 25 26 25 24 24 25 26 27 27 26 26 26 26 26 26 30 29 29
27 28 28 28 29 29 30 30 29 28 28 27 25 25 26 27 27 26 26 27 27 27 28 28 29 29 28 25 22 29 29 29 29 29 29 30 31 28
26 26 27 27 28 29 29 30 30 29 27 26 27 28 28 28 27 29 29 28 30 30 29 29 29 29 32 32 29 23 30 31 32 31 31 32 34 32
26 27 27 27 28 29 30 31 30 30 29 29 28 29 28 28 28 29 28 30 31 32 32 31 30 30 31 35 36 35 28 33 33 34 34 33 33 33
28 28 27 27 29 30 31 30 29 28 28 29 29 29 28 29 29 29 29 30 31 31 32 32 31 30 32 32 35 36 34 28 31 37 39 39 38 37
27 27 27 28 30 30 29 28 28 28 29 30 30 30 30 30 30 30 30 31 31 32 33 34 33 32 32 33 35 37 36 35 35 32 31 34 38 41
26 26 27 28 29 29 27 28 29 29 31 31 30 29 31 32 32 30 29 29 29 30 30 30 28 28 29 30 32 36 38 38 37 38 37 32 31 36
Wind_Direction
320 322 322 322 329 328 331 330 321 317 315 321 321 320 314 308 305 304 305 309 313 313 318 319 313 308 307 258 241 232 242 196 182 178 183 190 195 199
332 319 313 313 317 322 323 326 324 316 310 315 316 320 316 310 306 301 301 305 305 305 308 310 315 317 310 301 297 298 300 260 230 205 195 194 192 198
360 20 354 332 313 316 323 324 324 318 308 308 313 317 317 313 310 303 300 299 302 300 301 302 303 305 307 302 298 297 300 295 243 218 232 205 198 203
359 350 341 344 336 322 326 325 323 322 313 303 302 308 312 315 311 303 300 299 298 301 297 299 302 302 299 295 295 294 294 292 280 253 225 195 220 211
3 352 342 341 335 331 326 323 321 322 316 310 311 316 307 303 306 304 301 299 299 299 297 296 297 298 297 292 289 289 289 288 283 277 265 248 233 234
8 1 354 348 341 337 332 326 322 319 317 310 305 309 310 306 302 302 300 298 295 297 298 296 296 296 293 290 288 285 285 285 281 275 271 261 253 250
3 0 359 353 349 341 330 330 327 322 317 311 307 307 307 309 311 310 303 303 300 298 296 296 296 296 298 295 289 288 282 280 277 273 271 270 268 265
353 350 349 345 343 344 343 337 328 321 314 313 309 307 303 306 315 311 305 313 299 305 297 293 296 294 294 296 297 295 291 282 281 270 270 276 276 276
9 5 4 359 353 354 353 348 344 340 331 320 318 325 325 318 323 325 316 308 304 300 299 294 300 296 299 295 295 293 291 287 283 275 278 279 279 279
16 13 11 9 8 10 9 6 1 0 1 1 356 351 342 339 335 335 343 336 333 315 302 283 293 298 301 305 304 298 292 289 285 282 280 278 281 281
13 10 9 7 5 6 9 9 6 0 358 355 352 345 341 342 348 348 332 338 338 329 330 309 296 289 286 291 299 300 304 298 288 285 283 282 281 280
16 15 12 11 8 7 8 3 357 356 358 359 2 3 358 355 356 353 351 342 336 332 330 323 315 310 301 297 289 296 293 297 300 292 289 288 285 283
16 14 11 9 10 11 14 14 10 8 11 13 16 13 2 351 348 347 347 342 337 333 342 337 332 323 315 312 314 313 302 299 292 295 299 295 292 287
19 17 17 16 17 13 11 8 7 3 0 1 1 358 352 346 341 343 343 341 338 335 342 341 331 326 321 314 314 322 321 310 304 293 296 293 294 294
25 24 22 20 18 15 10 6 6 1 360 360 359 358 357 354 350 343 342 340 341 336 333 336 330 328 324 316 316 317 312 315 312 308 300 295 296 293
28 26 25 24 22 19 15 13 11 8 3 360 359 0 3 0 358 354 350 342 340 338 337 329 327 324 324 321 323 320 320 312 307 307 305 303 299 296
31 28 24 22 18 14 12 11 10 6 2 1 358 355 353 350 350 350 345 339 333 328 326 328 326 322 319 317 315 314 315 314 314 313 309 301 302 300
25 22 20 16 12 8 5 3 3 2 2 0 358 355 351 347 342 339 338 336 332 328 323 321 321 321 319 320 320 312 310 310 311 309 307 303 300 303
19 17 14 11 9 6 4 1 359 357 355 353 349 345 341 339 338 333 332 330 327 326 324 322 320 317 312 311 317 322 311 310 308 307 306 302 298 298
15 12 11 11 10 5 1 357 356 354 353 349 346 343 342 339 335 333 331 329 327 324 321 320 319 318 314 309 307 309 315 308 304 303 303 302 301 302
12 13 13 10 6 1 357 356 357 358 358 356 354 351 348 343 339 336 333 330 327 325 322 320 318 320 315 313 309 308 310 311 306 301 298 297 297 297
15 12 10 7 3 0 1 2 2 1 357 353 350 348 346 343 339 336 334 331 328 325 321 319 319 319 317 314 310 310 310 310 308 307 304 299 295 291
13 11 9 6 4 2 3 2 0 358 355 353 352 352 348 344 342 340 337 336 334 332 331 330 330 330 326 322 318 314 311 310 310 308 305 306 301 297